Volver al catálogo

STARLINK-3879

ActivoComunicacionesVLEO
NORAD 52473·PAYLOAD·🇺🇸 United States

Lanzado May 6, 2022 desde Cape Canaveral Space Force Station

Loading…

Próximos Pases (próximas 24 horas)

TLE

ActualizadoSource: CelesTrak SupGP

Época: Sep 14, 2026, 21:11 UTC

1 52473C 22049Y   26257.88312500  .00035500  00000+0  10775-2 0  2578
2 52473  53.1578 280.2420 0001192  80.0891 124.9485 15.33523154    15

Sigue STARLINK-3879 en tiempo real con AllMySat

Download on the App Store